星链-32721 (STARLINK-32721)

导读

STARLINK-32721是美国SpaceX公司星链(Starlink)卫星互联网项目中的一颗低轨卫星,于2024年12月29日由美国发射升空。作为星链星座的组成部分,它运行于近地轨道,依托可重复发射技术降低部署成本,凭借低轨特性带来高带宽、低延迟优势,可助力完善全球网络覆盖,尤其提升偏远地区网络接入能力,进一步增强了星链网络的稳定性与服务范围,推动全球卫星互联网建设。

基本信息
目录编号:
62438
目录名称:
STARLINK-32721
国际标识:
2024-251G
轨道中心:
EARTH
卫星名称:
星链-32721
卫星全名:
星链-32721 (STARLINK-32721)
卫星状态:
在轨 (已飞行614 天)
发射日期:
2024-12-29 UTC
国别 :
美国 (US)
星等 :
--
轨道信息
数据来源 国际轨道数据 AOE轨道数据
星历时间 2026-09-04T06:41:17+0800
18小时前
查看轨道信息
2026-08-31T23:00:00+0800
4天前
查看轨道信息
半长轴 6840.847km 6840.936km
偏心率 0.0001994 0.0001617
轨道倾角 53.159° 53.158°
近地点辐角 89.052° 107.146°
升交点赤经 224.951° 240.473°
平近点角 271.071° 261.820°
近地点 461.345km 461.692km
远地点 464.075km 463.906km
周期 93.848分钟 93.850分钟
每日圈数 15.343978 15.343681
详细信息
固有亮度:
5
最大亮度:
2.5
卫星平台:
Starlink V1.0
覆盖范围:
全球
运营商:
太空探索技术公司
运营商所在国:
美国
制造商(研发单位):
太空探索技术公司
制造商所在国:
美国
使用方式:
暂无
卫星简介
Starlink 计划是 SpaceX 推出的全球卫星互联网项目,通过发射低轨道卫星,为全球尤其是偏远地区提供高速、低延迟的互联网服务。自 2019 年起,Starlink 已部署数千颗卫星,旨在缩小全球数字鸿沟,推动互联网普及。该项目还为军事、航空等行业提供通信支持,带来广泛经济效益。
2D轨道图
3D轨道图
轨道高度分析图
轨道倾角分析图
轨道综合分析图
查看轨道综合分析图
交会数据列表
事件ID 空间交会对象 最接近时刻(TCA) 交会距离 交会风险概率(CRP) 交会风险指数(CRI) 操作
CDM_260906-092205-276306-243821
2026-09-06T
09:22:54+0000
1.794 km
极远距离
3.840331E-6 低风险 0.47
CDM_260906-150906-243806-581021
2026-09-06T
15:09:21+0000
2.930 km
极远距离
1.236953E-6 低风险 0.37
CDM_260906-102004-945106-243821
2026-09-06T
10:20:06+0000
2.980 km
极远距离
1.022623E-6 低风险 0.35
CDM_260906-182305-199006-243821
2026-09-06T
18:23:18+0000
2.651 km
极远距离
1.002899E-6 低风险 0.35